• In Hungary
  • List of Countries
  • For 7 days
  • Water Temperature
  • Satellite Maps
  • Weather Map
  • News
  • Weather Widgets
  • user-avatar
    Login

    Hourly Weather Makas

    Today, 14 December, Thursday

    Time Temperature Precipitation Wind Pressure Humidity
    00:00 +21°C° 0 mm 1 mps 675 mmHg 93%
    01:00 +21°C° 0 mm 1 mps 675 mmHg 91%
    02:00 +20°C° 0 mm 1 mps 675 mmHg 91%
    03:00 +20°C° 0 mm 1 mps 675 mmHg 90%
    04:00 +20°C° 0 mm 1 mps 675 mmHg 90%
    05:00 +20°C° 0 mm 1 mps 675 mmHg 88%
    06:00 +21°C° 0 mm 1 mps 676 mmHg 86%
    07:00 +22°C° 0 mm 1 mps 676 mmHg 82%
    08:00 +24°C° 0.1 mm 1 mps 677 mmHg 75%
    09:00 +26°C° 0.1 mm 1 mps 677 mmHg 69%
    10:00 +28°C° 0.1 mm 2 mps 677 mmHg 63%
    11:00 +29°C° 0.3 mm 2 mps 677 mmHg 62%
    12:00 +29°C° 0.3 mm 2 mps 677 mmHg 61%
    13:00 +29°C° 0.3 mm 2 mps 676 mmHg 60%
    14:00 +29°C° 0.5 mm 2 mps 676 mmHg 67%
    15:00 +28°C° 0.5 mm 1 mps 675 mmHg 73%
    16:00 +27°C° 0.5 mm 1 mps 675 mmHg 79%
    17:00 +26°C° 0.3 mm 1 mps 674 mmHg 85%
    18:00 +24°C° 0.3 mm 1 mps 674 mmHg 91%
    19:00 +23°C° 0.3 mm 1 mps 674 mmHg 96%
    20:00 +22°C° 0 mm 1 mps 675 mmHg 96%
    21:00 +22°C° 0 mm 1 mps 675 mmHg 96%
    22:00 +22°C° 0 mm 1 mps 675 mmHg 96%
    23:00 +21°C° 0 mm 1 mps 675 mmHg 96%

    Tomorrow, 15 December, Friday

    Time Temperature Precipitation Wind Pressure Humidity
    00:00 +21°C° 0 mm 1 mps 675 mmHg 95%
    01:00 +21°C° 0 mm 1 mps 675 mmHg 95%
    02:00 +20°C° 0 mm 1 mps 675 mmHg 94%
    03:00 +20°C° 0 mm 1 mps 675 mmHg 92%
    04:00 +20°C° 0 mm 1 mps 675 mmHg 91%
    05:00 +20°C° 0 mm 1 mps 675 mmHg 88%
    06:00 +21°C° 0 mm 1 mps 675 mmHg 85%
    07:00 +21°C° 0 mm 1 mps 676 mmHg 81%
    08:00 +24°C° 0 mm 1 mps 676 mmHg 70%
    09:00 +27°C° 0 mm 2 mps 677 mmHg 59%
    10:00 +30°C° 0 mm 2 mps 678 mmHg 48%
    11:00 +30°C° 0 mm 2 mps 677 mmHg 46%
    12:00 +31°C° 0 mm 2 mps 677 mmHg 44%
    13:00 +32°C° 0 mm 2 mps 676 mmHg 42%
    14:00 +32°C° 0 mm 2 mps 675 mmHg 45%
    15:00 +31°C° 0 mm 2 mps 675 mmHg 48%
    16:00 +30°C° 0 mm 2 mps 674 mmHg 51%
    17:00 +28°C° 0.1 mm 2 mps 674 mmHg 63%
    18:00 +26°C° 0.1 mm 1 mps 674 mmHg 75%
    19:00 +23°C° 0.1 mm 1 mps 673 mmHg 86%
    20:00 +23°C° 0.2 mm 1 mps 674 mmHg 88%
    21:00 +23°C° 0.2 mm 1 mps 675 mmHg 91%
    22:00 +22°C° 0.2 mm 1 mps 675 mmHg 93%
    23:00 +22°C° 0.1 mm 1 mps 675 mmHg 92%

    Day after tomorrow, 16 December, Saturday

    Time Temperature Precipitation Wind Pressure Humidity
    00:00 +22°C° 0.1 mm 1 mps 675 mmHg 92%
    01:00 +22°C° 0.1 mm 1 mps 675 mmHg 92%
    02:00 +21°C° 0 mm 1 mps 675 mmHg 91%
    03:00 +21°C° 0 mm 1 mps 674 mmHg 90%
    04:00 +21°C° 0 mm 1 mps 674 mmHg 90%
    05:00 +21°C° 0 mm 1 mps 674 mmHg 87%
    06:00 +21°C° 0 mm 1 mps 675 mmHg 85%
    07:00 +22°C° 0 mm 1 mps 675 mmHg 82%
    08:00 +25°C° 0 mm 1 mps 676 mmHg 71%
    09:00 +27°C° 0 mm 2 mps 677 mmHg 60%
    10:00 +30°C° 0 mm 2 mps 677 mmHg 49%
    11:00 +30°C° 0.1 mm 2 mps 677 mmHg 49%
    12:00 +31°C° 0.1 mm 2 mps 676 mmHg 49%
    13:00 +32°C° 0.1 mm 2 mps 676 mmHg 49%
    14:00 +31°C° 0.2 mm 2 mps 675 mmHg 56%
    15:00 +30°C° 0.2 mm 2 mps 674 mmHg 62%
    16:00 +29°C° 0.2 mm 1 mps 673 mmHg 68%
    17:00 +27°C° 0.5 mm 1 mps 673 mmHg 76%
    18:00 +25°C° 0.5 mm 1 mps 673 mmHg 84%
    19:00 +24°C° 0.5 mm 1 mps 673 mmHg 93%
    20:00 +23°C° 0.4 mm 1 mps 674 mmHg 94%
    21:00 +23°C° 0.4 mm 1 mps 674 mmHg 95%
    22:00 +22°C° 0.4 mm 1 mps 675 mmHg 96%
    23:00 +22°C° 0 mm 1 mps 675 mmHg 95%

    17 December, Sunday

    Time Temperature Precipitation Wind Pressure Humidity
    00:00 +22°C° 0 mm 1 mps 674 mmHg 95%
    01:00 +22°C° 0 mm 1 mps 674 mmHg 95%
    02:00 +22°C° 0 mm 1 mps 674 mmHg 95%
    03:00 +21°C° 0 mm 1 mps 674 mmHg 94%
    04:00 +21°C° 0 mm 1 mps 673 mmHg 94%
    05:00 +22°C° 0 mm 1 mps 674 mmHg 92%
    06:00 +22°C° 0 mm 1 mps 675 mmHg 90%
    07:00 +22°C° 0 mm 1 mps 675 mmHg 88%
    08:00 +24°C° 0.1 mm 1 mps 676 mmHg 81%
    09:00 +26°C° 0.1 mm 2 mps 676 mmHg 73%
    10:00 +28°C° 0.1 mm 2 mps 677 mmHg 66%
    11:00 +28°C° 0.4 mm 2 mps 676 mmHg 67%
    12:00 +29°C° 0.4 mm 2 mps 676 mmHg 67%
    13:00 +29°C° 0.4 mm 2 mps 675 mmHg 68%
    14:00 +29°C° 0.5 mm 2 mps 674 mmHg 68%
    15:00 +29°C° 0.5 mm 2 mps 674 mmHg 69%
    16:00 +29°C° 0.5 mm 1 mps 673 mmHg 69%
    17:00 +27°C° 0.6 mm 1 mps 673 mmHg 77%
    18:00 +25°C° 0.6 mm 1 mps 673 mmHg 84%
    19:00 +23°C° 0.6 mm 1 mps 673 mmHg 92%
    20:00 +23°C° 0.3 mm 1 mps 674 mmHg 93%
    21:00 +23°C° 0.3 mm 1 mps 675 mmHg 93%
    22:00 +23°C° 0.3 mm 1 mps 675 mmHg 94%
    23:00 +22°C° 0.3 mm 1 mps 675 mmHg 94%

    18 December, Monday

    Time Temperature Precipitation Wind Pressure Humidity
    00:00 +22°C° 0.3 mm 1 mps 675 mmHg 95%
    01:00 +21°C° 0.3 mm 1 mps 674 mmHg 95%
    02:00 +21°C° 0.1 mm 1 mps 674 mmHg 95%
    03:00 +21°C° 0.1 mm 1 mps 674 mmHg 94%
    04:00 +21°C° 0.1 mm 1 mps 674 mmHg 93%
    05:00 +21°C° 0.1 mm 1 mps 674 mmHg 92%
    06:00 +21°C° 0.1 mm 1 mps 675 mmHg 90%
    07:00 +21°C° 0.1 mm 1 mps 675 mmHg 89%
    08:00 +23°C° 0 mm 1 mps 676 mmHg 80%
    09:00 +25°C° 0 mm 1 mps 676 mmHg 71%
    10:00 +27°C° 0 mm 2 mps 677 mmHg 62%
    11:00 +28°C° 0 mm 2 mps 676 mmHg 55%
    12:00 +30°C° 0 mm 2 mps 676 mmHg 48%
    13:00 +32°C° 0 mm 2 mps 676 mmHg 41%
    14:00 +31°C° 0 mm 2 mps 675 mmHg 43%
    15:00 +31°C° 0 mm 2 mps 674 mmHg 44%
    16:00 +31°C° 0 mm 2 mps 674 mmHg 46%
    17:00 +28°C° 0.1 mm 2 mps 674 mmHg 59%
    18:00 +26°C° 0.1 mm 1 mps 674 mmHg 71%
    19:00 +23°C° 0.1 mm 1 mps 674 mmHg 84%
    20:00 +23°C° 0.3 mm 1 mps 675 mmHg 85%
    21:00 +22°C° 0.3 mm 1 mps 675 mmHg 87%
    22:00 +22°C° 0.3 mm 1 mps 676 mmHg 88%
    23:00 +22°C° 0 mm 1 mps 675 mmHg 87%

    19 December, Tuesday

    Time Temperature Precipitation Wind Pressure Humidity
    00:00 +21°C° 0 mm 1 mps 675 mmHg 87%
    01:00 +21°C° 0 mm 1 mps 675 mmHg 87%
    02:00 +21°C° 0 mm 1 mps 674 mmHg 85%
    03:00 +21°C° 0 mm 1 mps 674 mmHg 84%
    04:00 +20°C° 0 mm 1 mps 674 mmHg 83%
    05:00 +21°C° 0 mm 1 mps 674 mmHg 81%
    06:00 +21°C° 0 mm 1 mps 675 mmHg 78%
    07:00 +22°C° 0 mm 1 mps 675 mmHg 75%
    08:00 +24°C° 0 mm 1 mps 676 mmHg 66%
    09:00 +27°C° 0 mm 2 mps 677 mmHg 57%
    10:00 +29°C° 0 mm 2 mps 677 mmHg 47%
    11:00 +30°C° 0 mm 2 mps 677 mmHg 47%
    12:00 +30°C° 0 mm 2 mps 676 mmHg 46%
    13:00 +31°C° 0 mm 2 mps 675 mmHg 46%
    14:00 +30°C° 0 mm 2 mps 675 mmHg 49%
    15:00 +30°C° 0 mm 2 mps 674 mmHg 52%
    16:00 +29°C° 0 mm 2 mps 673 mmHg 55%
    17:00 +27°C° 0 mm 1 mps 674 mmHg 62%
    18:00 +26°C° 0 mm 1 mps 674 mmHg 70%
    19:00 +24°C° 0 mm 1 mps 674 mmHg 77%
    20:00 +24°C° 0.1 mm 1 mps 675 mmHg 80%
    21:00 +23°C° 0.1 mm 1 mps 675 mmHg 82%
    22:00 +23°C° 0.1 mm 1 mps 676 mmHg 85%
    23:00 +22°C° 0.2 mm 1 mps 675 mmHg 86%
    Show more